Location: Newark
(27.9675°N, 86.8869°E)
Time: 22:35:17
(UTC+00:00)

Courier 1B Rocket - Pass Details

Date: 19 October 2019
Orbit: 920 x 1202 km, 28.2° (Epoch: 10 November)

Event Time Altitude Azimuth Distance (km) Brightness Sun altitude
Rises 18:04:23 0° 197° (SSW) 3,674 - -72.0°
Reaches altitude 10° 18:10:15 10° 156° (SSE) 2,657 - -71.9°
Maximum altitude 18:11:02 10° 149° (SSE) 2,634 - -71.8°
Drops below altitude 10° 18:11:48 10° 142° (SE) 2,643 - -71.8°
Sets 18:17:28 0° 101° (E) 3,552 - -71.5°
